Brainerd Lakes Regional Airport
KBRD : now visible

Airfield :











YOU CAN JOIN US ON...

 
LOGIN :

Register | Disclaimer

   EN    FR    IT 

 









Legend :    VFR   Marginal VFR   IFR   Intensive IFR   Very Intensive IFR
Visi :
Ceiling :
>= 8 km
>= 3000ft
5 to 8 km
1000 to 3000 ft
1500m to 5 km
500 to 1000 ft
800 to 1500m
200 to 500 ft
< 800m
< 200 ft
Symbols :   Thunderstorms  Fog  Heavy snow  Heavy precipitations  Wind > 20 kt







- Airport Elevation : 1232 ft


KBRD - Brainerd Lakes Regional

CURRENT METAR :
  • 191453Z AUTO 00000KT 10SM CLR 26/18 A2977 RMK AO2 PRESRR SLP073 T02560178 53009 $

EXPIRED METARs :
  • 191353Z AUTO 13004KT 10SM CLR 24/18 A2973 RMK AO2 SLP060 T02390183 $
  • 191253Z AUTO 00000KT 10SM CLR 22/19 A2975 RMK AO2 SLP067 T02220189 $

TAF KBRD
Valid from the 19 at 12:00 until the 20 at 12:00 UTC


191135Z 1912/2012 VRB03KT P6SM SCT120
FM191500 VRB03KT P6SM VCSH BKN100
FM191900 VRB04KT 6SM SHRA VCTS BKN070CB
FM200200 VRB04KT P6SM SCT150
KZMP FIR / North America



MET'MAP, your aeronautical weather chart ! - Copyright ORBIFLY December 2007 - Disclaimer

ORBIFLY MET'MAP TEAM :

Programming & Development : Alexandra Zaïnal
Concept & Development : Baudouin d'Aumeries
Co-Development & Prog : Marc-Olivier Méhu
Technical & hardware support : Manuel Goepfert

Contact : metmap@orbifly.com




SOURCES & CREDITS :

   NOAA       Earth
Advisory